Wind_Speed
24 22 19 16 16 13 12 11 11 12 13 12 12 13 12 11 9 8 7 6 4 5 6 6 5 5 5 5 6 6 5 4 2 2 1 1 0 2 3 3 4 4 4 5 7 7 8 8 9
25 24 21 17 16 14 14 14 14 12 13 13 12 10 11 10 9 10 7 5 5 6 6 5 5 4 4 3 3 3 4 3 2 2 1 2 2 3 4 5 6 7 7 9 9 8 9 9 9
27 25 23 21 18 17 16 15 15 14 12 11 11 10 9 9 9 8 9 6 5 5 5 5 5 5 5 4 2 1 1 3 3 1 2 3 4 5 6 7 8 9 10 10 10 9 9 7 6
28 26 23 22 18 19 18 16 16 15 14 13 12 10 9 9 9 7 7 7 5 5 4 4 4 5 5 5 4 2 1 3 4 5 3 3 3 4 6 7 8 9 10 10 10 8 7 7 9
29 27 25 24 20 20 19 17 15 15 13 12 11 11 9 8 8 6 5 4 5 5 4 3 2 3 3 3 4 4 3 2 5 5 6 7 7 7 7 7 8 8 9 9 7 5 6 9 13
31 28 26 25 22 21 19 18 16 15 13 12 11 10 10 7 6 5 5 3 4 5 4 3 2 1 1 2 4 5 4 4 1 4 6 8 10 11 11 11 11 10 9 8 8 10 12 14 16
33 31 29 26 24 23 20 19 17 16 14 13 13 11 10 8 6 4 3 3 3 5 5 5 4 3 3 4 4 5 5 4 4 4 6 6 8 9 11 13 15 15 15 14 14 15 17 18 19
35 33 31 30 27 25 23 20 17 17 17 14 13 11 10 9 7 7 6 6 5 5 5 5 5 5 6 6 7 7 8 8 8 9 10 11 11 11 10 11 12 15 18 19 20 20 21 20 20
40 36 34 33 31 28 25 21 20 18 19 17 15 14 12 9 8 9 8 6 6 6 6 6 7 7 7 8 9 10 11 11 12 13 14 14 16 16 15 13 13 13 14 16 18 19 19 19 18
44 38 35 35 33 29 27 23 22 20 19 19 17 16 15 12 10 9 7 6 7 7 8 9 9 9 8 10 12 12 14 15 16 16 17 18 18 17 17 16 16 16 16 14 14 15 16 15 15
47 41 37 38 35 32 30 27 25 23 23 20 19 18 16 13 12 10 10 9 8 8 9 9 10 10 10 11 14 15 15 18 18 17 16 17 17 16 16 16 18 18 19 19 18 18 18 18 18
49 45 40 39 38 34 32 29 26 26 25 21 20 20 18 15 13 12 11 9 9 10 10 10 11 12 13 14 15 16 16 17 17 17 16 16 16 16 16 15 16 16 17 18 18 18 19 19 18
36 49 43 41 39 37 35 32 31 28 27 24 21 22 21 18 16 15 14 14 13 10 11 12 14 15 16 17 16 16 17 16 16 15 14 13 14 14 15 15 16 17 18 18 19 20 22 23 24
30 36 47 43 43 40 37 35 33 28 27 25 23 23 23 21 19 18 17 16 14 13 14 15 15 17 16 17 18 17 17 16 16 16 15 16 14 15 15 17 18 18 21 22 24 24 25 27 30
33 27 38 52 51 43 40 40 31 30 30 29 26 25 25 23 22 21 19 18 18 18 18 17 17 19 19 18 19 19 18 18 18 19 18 18 17 16 18 19 20 22 24 25 26 28 29 28 31
39 34 30 39 48 46 45 40 38 34 32 31 30 27 27 26 25 23 22 21 21 23 21 20 20 21 21 21 21 22 21 21 21 22 20 20 21 20 21 23 25 25 26 28 29 32 33 36 35
43 37 33 29 34 41 41 41 39 37 35 33 31 30 30 29 27 26 27 26 25 26 24 24 25 23 22 23 23 23 23 24 24 25 24 24 23 23 24 27 30 32 33 32 33 35 38 38 43
44 41 38 40 38 42 35 34 41 43 38 37 35 34 32 30 31 32 31 30 29 27 27 28 30 27 25 25 26 25 25 26 27 26 27 26 24 25 27 28 32 33 34 34 34 36 39 41 44
49 47 43 39 43 44 38 35 33 41 44 40 37 34 34 34 38 37 36 33 31 30 31 32 32 32 29 30 31 29 28 27 28 29 30 30 29 25 28 32 35 36 37 41 43 43 42 45 48
54 52 49 47 41 43 45 40 38 38 45 44 43 40 39 41 42 38 37 37 35 33 34 35 36 36 34 34 35 33 32 31 31 32 35 34 34 35 39 43 43 42 41 45 48 49 48 50 55
52 54 53 48 48 42 50 48 42 39 39 45 42 43 45 45 45 43 42 41 38 39 39 41 40 39 39 38 37 37 36 35 36 38 38 39 40 42 43 44 45 47 50 51 53 53 53 54 56
48 49 53 48 48 49 49 49 43 42 37 38 40 38 47 50 50 48 45 43 43 45 46 46 43 42 41 41 41 41 41 41 42 43 43 43 44 45 46 50 53 54 55 56 57 57 58 59 59
52 50 48 49 49 48 51 52 50 47 46 45 45 42 44 47 52 53 54 56 51 51 45 45 46 46 45 44 43 42 44 46 47 47 46 45 47 48 52 55 57 59 60 61 61 62 61 61 63
50 46 42 43 47 50 51 49 52 47 47 44 41 40 44 52 53 50 50 49 53 51 48 51 53 51 51 49 51 48 49 51 51 50 50 51 50 53 58 61 62 63 65 66 65 65 65 67 69
47 47 44 34 37 45 50 53 57 55 51 49 49 44 41 44 44 45 47 49 51 52 53 56 56 57 57 55 54 52 54 57 60 56 56 56 56 62 64 65 66 65 67 68 68 69 70 71 70
50 52 47 46 44 39 42 46 49 54 54 52 51 49 46 47 51 50 51 54 55 56 57 61 62 61 66 63 57 60 58 61 59 60 61 59 61 60 59 63 65 66 67 69 71 71 71 71 72
52 56 56 49 42 42 45 40 41 40 43 44 42 44 44 43 46 49 50 59 54 54 60 65 73 67 74 71 61 48 51 57 61 63 65 64 60 58 58 64 67 68 69 69 69 70 72 75 79
54 53 50 51 45 44 43 45 42 37 36 37 40 39 38 36 45 49 54 64 54 56 57 65 56 52 53 49 57 58 53 58 62 63 55 57 58 59 60 67 68 67 68 71 74 75 79 80 78
51 58 51 46 47 48 47 43 47 40 38 37 39 38 38 38 40 41 40 41 49 53 49 49 51 54 54 53 54 57 56 55 57 57 56 57 59 62 63 63 66 71 72 73 75 74 71 66 58
38 41 43 43 44 48 49 44 44 42 42 38 40 41 41 41 43 45 42 41 40 41 44 47 50 51 54 53 51 51 52 52 53 54 56 57 56 59 64 67 68 70 71 67 63 58 57 54 51
Wind_Direction
185 186 194 183 174 169 167 160 171 182 164 159 152 151 146 146 148 144 143 138 124 101 104 114 115 122 124 127 121 118 117 125 126 116 115 93 250 262 282 305 304 294 293 294 297 305 309 319 322
187 186 186 182 175 173 166 159 156 168 161 162 158 158 142 149 153 152 144 139 131 111 98 93 86 79 85 107 139 144 143 139 157 194 226 269 274 287 290 295 301 298 295 293 295 302 306 313 314
186 189 183 181 180 171 168 166 164 170 163 156 159 157 153 153 153 156 145 146 152 124 103 93 78 58 59 62 68 101 205 203 200 220 241 250 266 270 276 280 285 289 292 293 297 302 304 308 317
186 189 184 180 180 181 171 175 171 173 169 158 155 153 155 157 158 160 150 153 171 137 123 112 97 81 55 57 68 59 279 254 227 232 245 266 277 281 286 286 289 289 289 292 301 308 310 311 310
186 190 186 178 178 187 174 177 178 180 179 163 151 147 153 165 162 158 156 168 168 159 156 149 147 112 83 32 27 45 33 297 248 245 254 268 275 282 290 295 296 296 298 299 301 301 301 303 307
193 190 188 182 181 185 180 180 183 190 179 172 162 161 160 165 167 176 166 185 194 188 186 211 230 244 30 9 350 349 359 20 330 258 255 256 261 268 273 275 281 286 289 288 289 294 298 303 306
198 193 191 190 185 189 188 186 188 190 184 183 173 174 164 166 169 184 196 190 215 215 219 229 242 263 290 318 329 325 319 312 300 285 276 273 273 276 279 284 278 278 279 281 282 285 291 296 302
200 196 198 192 191 195 190 190 194 196 188 188 185 182 170 171 181 193 203 214 212 224 242 248 248 259 280 295 304 309 307 304 300 296 296 294 283 273 272 274 277 274 273 274 276 282 287 289 291
201 198 202 198 196 196 200 196 194 203 198 192 194 186 176 183 191 200 211 227 238 238 247 252 256 268 278 286 289 295 293 290 290 291 290 293 296 287 268 272 278 279 278 273 274 277 281 284 286
207 202 204 206 201 197 203 200 202 202 212 200 203 201 193 188 195 210 218 225 237 242 246 252 257 261 268 275 284 291 296 295 293 292 294 297 297 293 278 275 283 285 280 286 290 288 282 280 279
209 203 206 211 206 203 204 203 207 204 212 209 209 213 210 199 198 208 219 224 231 244 254 260 263 263 263 273 281 287 294 300 299 297 295 294 299 300 295 289 293 293 291 288 291 292 290 290 287
210 206 206 216 212 210 207 207 210 207 210 211 210 218 218 216 210 215 225 233 241 242 255 266 274 276 276 276 282 288 291 297 303 306 308 308 306 304 302 299 299 292 285 284 285 285 286 287 283
218 212 208 217 219 217 210 209 210 213 215 210 214 219 220 221 221 219 226 231 235 243 254 262 268 271 276 279 281 288 294 300 304 309 309 299 292 293 298 303 300 299 296 291 290 290 289 287 285
204 213 208 216 220 221 220 212 215 215 222 218 215 224 224 225 225 227 230 236 243 243 250 261 268 274 276 278 283 286 289 296 300 297 297 303 309 311 310 307 304 300 299 298 296 293 291 293 294
208 210 222 217 218 223 225 223 218 217 224 227 221 224 229 228 230 232 232 238 245 248 250 255 264 274 279 281 282 283 284 285 285 288 293 299 303 304 305 303 302 305 304 304 304 303 299 296 297
223 230 227 222 218 223 228 225 226 222 223 226 230 225 230 232 234 236 237 239 242 247 253 257 264 270 273 278 280 280 281 279 279 278 283 286 291 295 295 294 294 294 293 294 296 297 296 297 294
226 226 229 227 218 226 235 232 231 228 226 227 231 233 229 234 237 236 238 239 243 249 254 262 267 270 277 278 279 280 278 278 278 279 282 284 286 290 293 296 297 297 295 296 297 297 295 294 295
227 226 224 226 224 227 233 233 235 236 229 230 233 235 237 236 241 239 238 241 243 252 258 264 268 270 271 272 274 274 275 276 277 277 277 277 279 285 293 298 296 294 295 295 295 294 293 294 293
230 232 231 227 227 231 233 236 237 235 232 232 233 240 241 239 240 241 241 241 245 253 258 262 267 270 272 271 269 269 273 275 276 276 275 272 275 280 293 299 296 293 293 293 291 291 292 293 292
231 230 232 231 226 234 234 241 237 237 232 233 233 232 240 242 243 244 248 246 247 252 262 267 266 268 269 271 274 273 274 272 272 272 273 271 273 277 288 296 294 291 291 291 291 291 291 291 293
231 232 234 234 232 230 234 238 237 235 236 238 242 234 237 244 245 246 245 247 249 251 256 262 264 266 268 269 272 273 275 276 275 274 274 272 273 278 286 288 289 289 290 291 291 292 291 289 291
232 234 236 237 234 229 228 235 237 240 241 241 249 242 242 242 245 247 246 246 249 252 255 259 262 266 269 269 271 272 271 275 278 276 274 275 277 279 283 285 287 289 289 290 291 291 293 294 294
235 237 237 235 237 235 237 238 238 243 243 248 249 251 246 239 241 247 248 252 247 254 257 256 260 265 269 269 268 267 273 276 279 277 275 275 275 275 283 287 289 290 292 292 293 295 296 295 294
231 234 239 237 239 240 240 243 246 240 243 246 241 253 247 244 244 249 255 248 250 254 256 257 261 263 263 264 267 269 272 275 277 276 275 277 278 280 286 289 289 290 291 291 292 294 294 296 296
227 225 223 229 232 238 241 239 242 244 240 245 246 252 253 239 242 257 253 252 253 257 257 260 262 261 262 263 263 268 271 276 279 275 276 277 279 285 288 288 289 290 291 292 293 293 295 296 297
225 223 229 236 238 239 240 237 240 244 247 251 252 251 253 242 252 258 264 263 257 263 264 267 265 271 268 266 264 263 271 274 275 276 273 271 279 282 286 288 291 292 293 293 295 297 296 295 294
227 229 230 235 240 245 245 245 242 246 249 252 251 250 252 250 251 257 265 267 255 270 269 272 263 269 264 268 263 274 271 271 273 274 272 269 276 281 286 288 292 295 294 293 293 293 294 295 294
229 232 239 242 245 249 248 248 247 248 248 252 253 253 251 256 254 253 259 253 251 256 267 265 260 267 266 270 274 270 272 274 273 275 283 285 286 288 290 289 291 292 292 292 294 294 294 294 292
234 238 239 244 247 250 253 253 250 251 251 253 259 262 265 263 258 261 251 256 263 264 264 267 276 277 277 279 279 282 282 282 284 289 292 292 292 293 291 290 291 291 292 293 293 293 293 293 293
234 237 238 238 240 241 248 251 250 249 251 253 255 257 259 260 256 254 255 262 269 277 279 279 278 279 279 281 283 285 285 285 285 285 287 289 290 290 291 293 295 295 293 292 293 294 294 293 290
Height
5840 5844 5848 5852 5856 5857 5858 5861 5863 5865 5864 5865 5865 5866 5868 5869 5871 5874 5873 5874 5875 5875 5876 5876 5877 5877 5877 5878 5878 5879 5879 5879 5879 5880 5880 5881 5881 5882 5882 5882 5882 5883 5883 5883 5882 5882 5881 5880 5880
5839 5842 5847 5851 5854 5856 5858 5861 5864 5865 5864 5865 5866 5867 5868 5870 5871 5872 5874 5875 5875 5876 5877 5877 5877 5878 5877 5878 5879 5879 5880 5880 5880 5880 5881 5881 5881 5882 5882 5882 5882 5882 5882 5882 5882 5881 5880 5880 5879
5836 5841 5845 5848 5853 5855 5858 5861 5863 5865 5865 5865 5866 5867 5869 5871 5871 5873 5873 5875 5876 5876 5877 5878 5878 5879 5878 5878 5879 5879 5880 5881 5881 5881 5881 5881 5881 5881 5881 5882 5881 5881 5881 5881 5881 5881 5880 5879 5879
5834 5841 5845 5847 5852 5855 5857 5860 5862 5865 5866 5866 5866 5868 5870 5871 5872 5873 5874 5875 5877 5877 5878 5879 5879 5879 5880 5879 5879 5879 5880 5880 5881 5881 5882 5882 5882 5882 5881 5881 5880 5880 5880 5880 5880 5880 5879 5879 5879
5832 5839 5844 5846 5850 5854 5856 5860 5862 5864 5866 5866 5867 5869 5870 5872 5873 5874 5875 5876 5877 5878 5879 5879 5880 5880 5880 5880 5880 5879 5879 5880 5880 5881 5882 5882 5882 5882 5881 5881 5880 5880 5879 5879 5879 5879 5879 5879 5878
5832 5838 5842 5845 5848 5853 5856 5859 5861 5864 5865 5867 5867 5868 5870 5872 5874 5875 5875 5877 5878 5878 5879 5880 5880 5881 5880 5880 5881 5881 5880 5880 5880 5880 5880 5880 5880 5880 5880 5880 5879 5879 5878 5878 5878 5878 5878 5878 5877
5830 5835 5839 5843 5847 5851 5855 5858 5860 5863 5865 5867 5867 5867 5870 5871 5874 5875 5876 5877 5878 5879 5879 5880 5880 5881 5881 5880 5880 5880 5879 5879 5879 5879 5878 5878 5878 5878 5878 5878 5879 5879 5878 5878 5877 5876 5875 5875 5874
5827 5832 5836 5840 5844 5848 5852 5856 5859 5861 5864 5865 5866 5868 5870 5871 5873 5874 5876 5876 5877 5878 5880 5880 5880 5881 5881 5880 5880 5879 5879 5878 5878 5878 5877 5877 5876 5875 5875 5874 5874 5875 5874 5874 5874 5873 5873 5872 5871
5823 5828 5833 5837 5840 5845 5851 5855 5856 5859 5862 5865 5865 5867 5870 5871 5872 5874 5875 5876 5878 5878 5879 5880 5880 5880 5880 5879 5879 5878 5878 5878 5876 5876 5875 5874 5874 5873 5872 5871 5871 5870 5869 5869 5869 5868 5868 5868 5868
5819 5826 5828 5834 5837 5842 5848 5852 5854 5857 5862 5863 5865 5865 5868 5870 5871 5873 5874 5876 5877 5878 5878 5878 5878 5878 5878 5877 5877 5877 5877 5876 5875 5875 5875 5874 5872 5871 5870 5870 5869 5868 5867 5866 5866 5865 5863 5862 5863
5816 5822 5824 5831 5834 5840 5844 5849 5851 5854 5858 5861 5864 5864 5866 5869 5870 5872 5874 5874 5876 5877 5878 5877 5877 5876 5876 5876 5876 5875 5874 5874 5873 5872 5872 5871 5871 5870 5870 5869 5868 5868 5867 5866 5864 5862 5861 5861 5860
5811 5817 5821 5826 5830 5836 5841 5846 5849 5851 5854 5858 5862 5864 5864 5866 5869 5871 5872 5874 5874 5875 5876 5876 5876 5876 5875 5874 5873 5874 5872 5872 5871 5871 5869 5869 5868 5867 5867 5867 5866 5864 5863 5862 5861 5859 5858 5857 5856
5804 5810 5817 5821 5827 5831 5838 5841 5844 5848 5851 5855 5859 5861 5862 5863 5866 5868 5869 5871 5872 5872 5873 5873 5873 5873 5873 5872 5871 5871 5872 5871 5870 5868 5867 5865 5864 5864 5864 5863 5862 5861 5860 5859 5858 5857 5856 5854 5852
5798 5804 5812 5816 5820 5826 5832 5836 5841 5845 5848 5852 5855 5859 5860 5861 5863 5865 5867 5869 5870 5869 5870 5870 5870 5871 5870 5870 5870 5869 5869 5869 5869 5866 5864 5863 5862 5861 5860 5859 5859 5858 5857 5856 5855 5852 5850 5849 5849
5795 5799 5804 5809 5814 5819 5824 5830 5839 5841 5844 5848 5851 5855 5858 5859 5860 5861 5863 5866 5867 5867 5867 5867 5868 5869 5868 5868 5867 5867 5866 5865 5864 5864 5863 5862 5861 5860 5859 5856 5855 5855 5853 5852 5851 5851 5848 5843 5842
5789 5794 5797 5804 5809 5814 5817 5825 5832 5836 5839 5843 5846 5851 5854 5856 5856 5859 5860 5861 5862 5863 5864 5864 5864 5864 5864 5864 5863 5862 5861 5860 5860 5859 5858 5858 5858 5857 5856 5853 5851 5850 5848 5847 5845 5844 5843 5842 5836
5783 5790 5796 5801 5804 5810 5812 5819 5823 5830 5835 5839 5841 5845 5849 5851 5854 5854 5854 5855 5856 5858 5859 5860 5860 5860 5861 5860 5858 5857 5856 5856 5856 5854 5854 5854 5853 5853 5851 5850 5847 5845 5844 5842 5840 5838 5836 5835 5833
5779 5785 5791 5796 5801 5804 5807 5813 5817 5822 5829 5833 5836 5839 5844 5848 5848 5848 5848 5850 5851 5853 5855 5856 5856 5855 5854 5854 5853 5853 5851 5851 5851 5849 5848 5848 5846 5846 5846 5845 5842 5839 5837 5836 5832 5829 5828 5826 5823
5772 5779 5784 5790 5794 5797 5801 5806 5811 5815 5820 5826 5830 5834 5838 5841 5838 5841 5842 5844 5846 5848 5849 5849 5850 5849 5848 5848 5848 5848 5847 5846 5845 5844 5842 5841 5840 5839 5837 5835 5834 5831 5829 5827 5823 5820 5816 5815 5811
5765 5771 5777 5781 5787 5790 5794 5800 5804 5808 5812 5816 5821 5825 5829 5832 5832 5835 5838 5840 5840 5841 5843 5843 5843 5843 5842 5842 5842 5842 5841 5839 5839 5836 5835 5833 5833 5831 5828 5826 5824 5822 5819 5816 5813 5809 5805 5803 5800
5759 5764 5769 5774 5779 5784 5788 5790 5794 5799 5804 5808 5812 5817 5820 5825 5825 5827 5829 5832 5833 5834 5835 5836 5836 5836 5836 5836 5835 5835 5834 5833 5830 5828 5826 5824 5823 5821 5819 5817 5814 5812 5810 5805 5802 5798 5794 5791 5788
5752 5757 5761 5767 5770 5774 5780 5781 5787 5791 5797 5800 5805 5809 5813 5815 5818 5819 5821 5823 5826 5826 5826 5827 5827 5828 5828 5828 5828 5827 5826 5824 5823 5821 5818 5815 5814 5812 5810 5807 5804 5801 5798 5794 5790 5786 5782 5778 5775
5744 5750 5754 5759 5763 5767 5772 5775 5778 5783 5787 5792 5796 5800 5802 5804 5808 5811 5812 5815 5816 5816 5817 5818 5818 5819 5820 5819 5819 5817 5816 5815 5813 5812 5809 5807 5805 5802 5799 5796 5792 5789 5785 5782 5778 5774 5769 5765 5762
5736 5742 5747 5751 5755 5758 5765 5770 5768 5777 5780 5783 5787 5789 5792 5794 5798 5802 5804 5805 5807 5807 5807 5809 5809 5810 5810 5809 5809 5808 5807 5805 5803 5802 5799 5796 5793 5790 5787 5784 5780 5776 5772 5768 5764 5761 5756 5750 5747
5728 5735 5738 5742 5743 5748 5755 5759 5762 5765 5773 5777 5779 5782 5784 5785 5790 5793 5796 5797 5797 5797 5797 5799 5798 5799 5799 5798 5797 5797 5796 5794 5793 5790 5787 5784 5781 5777 5774 5771 5767 5762 5759 5755 5751 5746 5741 5736 5732
5720 5727 5730 5733 5738 5744 5746 5751 5757 5760 5763 5767 5769 5772 5776 5781 5782 5783 5784 5785 5787 5788 5788 5789 5787 5786 5786 5786 5786 5785 5785 5782 5780 5778 5774 5771 5768 5766 5761 5758 5753 5749 5744 5740 5737 5732 5726 5722 5716
5712 5717 5723 5726 5730 5736 5739 5746 5750 5753 5755 5759 5762 5765 5769 5772 5773 5775 5775 5776 5775 5777 5776 5776 5774 5773 5774 5775 5772 5769 5770 5769 5767 5764 5761 5757 5753 5750 5746 5743 5739 5734 5731 5726 5722 5717 5711 5706 5700
5704 5713 5715 5717 5722 5727 5732 5738 5743 5747 5749 5753 5756 5759 5761 5762 5764 5765 5766 5766 5765 5766 5767 5765 5765 5766 5764 5762 5762 5760 5758 5756 5753 5751 5748 5744 5741 5737 5732 5730 5726 5721 5716 5711 5706 5700 5694 5689 5682
5696 5701 5707 5712 5716 5720 5726 5731 5737 5740 5741 5745 5748 5749 5752 5754 5755 5756 5755 5756 5756 5757 5757 5756 5755 5754 5752 5750 5750 5748 5746 5743 5741 5738 5734 5731 5727 5724 5722 5717 5713 5707 5700 5692 5687 5681 5675 5671 5666
5689 5693 5698 5704 5710 5713 5718 5724 5729 5730 5733 5736 5739 5741 5743 5744 5746 5747 5747 5746 5745 5745 5745 5745 5745 5744 5743 5741 5739 5737 5734 5731 5728 5726 5723 5721 5717 5714 5710 5704 5696 5687 5680 5674 5669 5665 5660 5656 5654